Regional Weather Roundup
Issued by NWS Lake Charles, LA

Current Version | Previous Version | Text Only | Print | Product List | Glossary On
Versions: 1 2 3 4 5 6 7 8 9 10 11 12 13 14 15 16 17 18 19 20 21 22 23 24 25 26 27 28 29 30 31 32 33 34 35 36 37 38 39 40 41 42 43 44 45 46 47 48 49 50
000
ASUS44 KLCH 041010
RWRLCH
RWRLCH
REGIONAL WEATHER ROUNDUP
NATIONAL WEATHER SERVICE LAKE CHARLES LA
500 AM CDT MON MAY 04 2015

Note: "fair" indicates few or no clouds below 12,000 feet with no
significant weather and/or obstructions to visibility.


ACROSS SOUTHEAST TEXAS

CITY           SKY/WX    TMP DP  RH WIND       PRES   REMARKS
BEAUMONT       CLEAR     65  61  87 SE3       30.04S
BEAUMONT CITY    N/A     59  59  99 CALM      30.05S FOG
ORANGE         SUNNY     59  57  93 CALM      30.06S FOG
JASPER         NOT AVBL
$$

ACROSS CENTRAL LOUISIANA

CITY           SKY/WX    TMP DP  RH WIND       PRES   REMARKS
LEESVILLE      CLEAR     59  56  89 E3        30.07S
FULLERTON        N/A     59  54  83 CALM      30.06S
ALEXANDRIA INT MOCLDY    61  59  93 CALM      30.07S
ESLER FIELD    CLEAR     59  57  93 CALM      30.09S FOG
DERIDDER         N/A     58  56  96 CALM      30.09R
OAKDALE        SUNNY     55  54  95 CALM      30.07S
OPELOUSAS        N/A    N/A N/A N/A CALM      30.08S
$$

ACROSS SOUTHWEST AND SOUTH CENTRAL LOUISIANA

CITY           SKY/WX    TMP DP  RH WIND       PRES   REMARKS
SULPHUR        SUNNY     64  63  98 CALM      30.06S FOG
LAKE CHARLES   CLEAR     62  60  93 CALM      30.05S
CHENNAULT INT  CLEAR     62  62  98 CALM      30.06S FOG
CAMERON PHI    SUNNY     73  59  60 S12       30.07S
DEQUINCY         N/A     55  55 100 CALM      30.06S
JENNINGS         N/A     62  61  95 E3        30.07R
LAFAYETTE      CLEAR     63  60  90 CALM      30.07S
NEW IBERIA     CLEAR     63  59  87 E6        30.08R
ABBEVILLE        N/A     61  59  92 E3        30.07S
PATTERSON      CLEAR    N/A N/A N/A CALM      30.08S
SALT POINT       N/A     63  61  93 CALM      30.06S
$$

SELECTED SITES ACROSS THE REGION

CITY           SKY/WX    TMP DP  RH WIND       PRES   REMARKS
HOUSTON BUSH   PTCLDY    61  60  97 SE3       30.02S
HOUSTON HOBBY  PTCLDY    67  63  87 SE5       30.01F
GALVESTON      CLEAR     72  62  71 SE12      30.03S
COLLEGE STAT   PTCLDY    63  60  90 SE5       30.02S
CONROE         CLEAR     57  54  89 CALM      30.03F
HUNTSVILLE     CLEAR     65  61  87 S5        30.03S
LUFKIN         CLEAR     61  56  83 E3        30.05S
SHREVEPORT     CLEAR     60  56  86 CALM      30.07R
MONROE         CLEAR     62  59  90 CALM      30.11R
NATCHEZ MS     CLEAR     61  54  77 S5        30.11R
BATON ROUGE    CLEAR     58  56  93 CALM      30.09S
N.O. INTL ARPT PTCLDY    67  61  81 E5        30.07S
SLIDELL        PTCLDY    59  58  96 CALM      30.09R
$$

MARINE REPORTS

STATION/POSITION TIME  TEMP    WIND        PRES    VSBY  WAVE
                       AIR SEA DIR/SP/G                  HT/PER
                 (UTC) (F)     (DEG/KT/KT) (MB)    (MI)  (FT/S)
BUOY 30 S HIGH I 0950   74 74  130/ 14/ 16 1016.0F         3/ 5
SEA RIM ST PARK  1000   72     160/ 10/ 12 1017.6S
PORT ARTHUR      0900      72  150/  5/  8 1017.4F
SABINE PASS N    0900   72 74  170/  9/ 11 1017.3F
TEXAS POINT      NOT AVBL
CALCASIEU PASS   0900   74 75  160/ 11/ 14   N/A
LK CHARLES BEACH 0900   66 72              1018.0F
MARSH ISLAND     0900   73     150/ 10/ 12   N/A           0
FRESH WATER LOCK 0900   71 78  130/  4/  5 1017.6F
AMERADA PASS     0900   65 69   80/  1/  2 1017.9F
$$



USA.gov is the U.S. government's official web portal to all federal, state and local government web resources and services.